Tracking 19224 objects as of 23-Jul-2018
HD Live streaming from Space Station
objects crossing your sky now

LES 6

Track LES 6 now!
LES 6 is classified as:


NORAD ID: 3431
Int'l Code: 1968-081D
Perigee: 35,731.8 km
Apogee: 35,820.3 km
Inclination: 5.8 °
Period: 1,435.2 minutes
Semi major axis: 42147 km
RCS: 3.1622 m2 (large)
Launch date: September 26, 1968
Source: United States (US)
Launch site: AIR FORCE EASTERN TEST RANGE (AFETR)
aabbcc
Your satellite tracking list
Your tracking list is empty




NASA's NSSDC Master Catalog

Two Line Element Set (TLE):
1 03431U 68081D   18203.40292481 -.00000254  00000-0  00000+0 0  9999
2 03431   5.7705 309.7372 0010498 341.2728  76.2847  1.00334899 92054
Source of the keplerian elements: AFSPC